DW3611 Weather Reports


Display with metric or nautical units.
time (UTC)temp
F
wind
direction
speed
MPH
gust
MPH
rain 1hr
in
rain 24hr
in
rain mn
in
humidity
%
barometer
mb
20260903104002 77 191 0.0 1.0 0.00 1.78 0.00 94 1015.0
20260903103503 77 191 0.0 1.0 0.00 1.80 0.00 94 1015.1
20260903103003 77 191 0.0 1.0 0.00 1.81 0.00 94 1015.0
20260903102503 77 191 0.0 1.0 0.00 1.81 0.00 94 1015.1
20260903102005 77 191 0.0 1.0 0.00 1.83 0.00 94 1015.0
20260903101508 77 191 0.0 1.0 0.00 1.87 0.00 94 1014.9
20260903101002 77 191 0.0 1.0 0.00 1.93 0.00 94 1014.8
20260903100503 77 191 0.0 1.0 0.00 1.96 0.00 94 1014.7
20260903100003 77 191 0.0 1.0 0.00 1.98 0.00 94 1014.7
20260903095503 77 191 0.0 1.0 0.00 1.99 0.00 94 1014.8
20260903095004 77 191 0.0 1.0 0.00 2.00 0.00 94 1014.6
20260903094503 77 191 0.0 2.0 0.00 2.01 0.00 94 1014.6
20260903094005 77 175 0.0 2.0 0.00 2.02 0.00 94 1014.6
20260903093504 77 94 0.0 2.0 0.00 2.04 0.00 94 1014.5
20260903093002 77 123 0.0 3.0 0.00 2.08 0.00 94 1014.5
20260903092506 77 177 0.0 3.0 0.00 2.14 0.00 94 1014.6
20260903092002 77 173 0.0 3.0 0.00 2.17 0.00 94 1014.4
20260903091502 77 166 0.0 3.0 0.00 2.20 0.00 94 1014.4
20260903091006 77 123 0.0 3.0 0.00 2.22 0.00 94 1014.4
20260903090502 77 197 0.0 2.0 0.00 2.23 0.00 94 1014.4
20260903090003 77 36 0.0 1.0 0.00 2.24 0.00 94 1014.6
20260903085503 77 36 0.0 0.0 0.00 2.26 0.00 94 1014.5
20260903085002 77 36 0.0 1.0 0.00 2.28 0.00 94 1014.5
20260903084504 77 36 0.0 1.0 0.00 2.29 0.00 94 1014.5
20260903084004 77 36 0.0 1.0 0.00 2.31 0.00 94 1014.5
20260903083503 77 36 0.0 0.0 0.00 2.45 0.00 94 1014.5
20260903083005 77 36 0.0 1.0 0.00 2.59 0.00 94 1014.6
20260903082503 77 36 0.0 2.0 0.00 2.66 0.00 94 1014.6
20260903082004 77 36 0.0 2.0 0.00 2.85 0.00 94 1014.6
20260903081507 77 321 0.0 2.0 0.00 2.98 0.00 94 1014.5
20260903081002 78 321 0.0 2.0 0.00 3.00 0.00 94 1014.5
20260903080504 77 51 0.0 2.0 0.00 3.10 0.00 94 1014.5
20260903080008 77 57 0.0 1.0 0.00 3.14 0.00 94 1014.4
20260903075503 77 113 0.0 3.0 0.00 3.25 0.00 94 1014.4
20260903075003 77 164 0.0 3.0 0.00 3.30 0.00 94 1014.4
20260903074511 77 240 0.0 3.0 0.00 3.33 0.00 94 1014.4
20260903074004 77 162 0.0 3.0 0.00 3.35 0.00 94 1014.4
20260903073504 77 182 0.0 3.0 0.00 3.37 0.00 94 1014.3
20260903073008 78 209 0.0 5.0 0.00 3.44 0.00 94 1014.4
20260903072504 78 196 1.0 5.0 0.00 3.52 0.00 94 1014.5
20260903072004 77 166 0.0 5.0 0.00 3.60 0.00 94 1014.4
20260903071508 77 153 1.0 5.0 0.00 3.76 0.00 94 1014.4
20260903071003 77 155 1.0 4.0 0.00 3.90 0.00 94 1014.4
20260903070508 78 254 1.0 5.0 0.00 4.02 0.00 94 1014.5
20260903070015 78 203 2.0 5.0 0.00 4.21 0.00 94 1014.6
20260903065507 78 205 2.0 4.0 0.00 4.27 0.00 94 1014.6
20260903065007 78 247 1.0 5.0 0.00 4.30 0.00 94 1014.6
20260903064511 78 229 1.0 4.0 0.00 4.33 0.00 94 1014.6
20260903064004 78 244 1.0 6.0 0.00 4.37 0.00 94 1014.7
20260903063504 78 173 2.0 6.0 0.00 4.38 0.00 94 1014.7
20260903063016 77 242 2.0 5.0 0.00 4.38 0.00 94 1014.7
20260903062506 77 180 0.0 4.0 0.00 4.38 0.00 94 1014.7
20260903062008 77 128 0.0 5.0 0.00 4.38 0.00 94 1014.7
20260903061511 77 211 2.0 4.0 0.00 4.38 0.00 94 1014.6
20260903061012 77 107 0.0 5.0 0.00 4.38 0.00 94 1014.7
20260903060507 77 265 2.0 5.0 0.00 4.38 0.00 94 1014.8
20260903060013 77 165 1.0 7.0 0.00 4.38 0.00 94 1014.8
20260903055509 77 163 2.0 7.0 0.00 4.38 0.00 94 1014.9
20260903055007 77 196 1.0 7.0 0.00 4.38 0.00 94 1014.9
20260903054518 77 262 2.0 7.0 0.00 4.38 0.00 94 1015.0
20260903054007 77 232 3.0 8.0 0.00 4.38 0.00 94 1015.0
20260903053509 77 171 3.0 8.0 0.00 4.38 0.00 94 1015.0
20260903053011 77 265 3.0 8.0 0.00 4.39 0.00 94 1014.9
20260903052510 77 286 1.0 8.0 0.00 4.39 0.00 94 1014.9
20260903052011 77 225 2.0 7.0 0.00 4.39 0.00 94 1014.8
20260903051518 77 272 1.0 6.0 0.00 4.39 0.00 94 1014.7
20260903051009 77 201 2.0 8.0 0.00 4.40 0.00 94 1014.7
20260903050508 77 221 1.0 9.0 0.00 4.40 0.00 94 1014.7
20260903050007 77 190 4.0 9.0 0.00 4.40 0.00 94 1014.8
20260903045504 77 113 2.0 7.0 0.00 4.40 4.40 94 1014.7
20260903045003 77 148 3.0 9.0 0.00 4.40 4.40 94 1014.7
20260903044504 77 204 4.0 9.0 0.00 4.40 4.40 94 1014.7
20260903044006 77 223 2.0 9.0 0.00 4.41 4.40 94 1014.7
20260903043508 77 192 2.0 7.0 0.00 4.41 4.40 94 1014.6
20260903043010 77 173 2.0 7.0 0.00 4.42 4.40 94 1014.7
20260903042502 77 188 2.0 7.0 0.00 4.42 4.40 94 1014.8
20260903042003 77 20 1.0 7.0 0.00 4.42 4.40 94 1014.8
20260903041506 77 221 1.0 7.0 0.00 4.42 4.40 94 1014.9
20260903041003 76 273 1.0 5.0 0.00 4.42 4.40 94 1015.0
20260903040506 76 75 0.0 7.0 0.00 4.42 4.40 94 1015.0
20260903040009 76 308 1.0 7.0 0.00 4.42 4.40 94 1015.0
20260903035505 76 204 1.0 6.0 0.00 4.44 4.40 94 1015.1
20260903035008 76 49 1.0 6.0 0.00 4.44 4.40 94 1015.1
20260903034507 76 124 0.0 4.0 0.00 4.44 4.40 94 1015.2
20260903034004 76 205 0.0 6.0 0.00 4.44 4.40 94 1015.2
20260903033507 77 150 0.0 6.0 0.00 4.46 4.40 94 1015.2
20260903033014 76 179 1.0 5.0 0.00 4.46 4.40 94 1015.3
20260903032506 76 220 2.0 4.0 0.00 4.46 4.40 94 1015.3
20260903032007 76 0.0 2.0 0.00 4.48 4.40 94 1015.3
20260903031519 76 27 0.0 2.0 0.00 4.48 4.40 94 1015.3
20260903031007 76 161 0.0 2.0 0.00 4.50 4.40 94 1015.2
20260903030504 76 67 0.0 2.0 0.00 4.50 4.40 94 1015.1
20260903030013 76 207 0.0 2.0 0.00 4.51 4.40 94 1015.1
20260903025504 76 341 0.0 3.0 0.00 4.51 4.40 94 1015.1
20260903025004 76 159 0.0 3.0 0.00 4.52 4.40 94 1015.1
20260903024506 76 92 0.0 3.0 0.01 4.53 4.40 94 1015.1
20260903024008 76 360 0.0 3.0 0.01 4.54 4.40 94 1015.0
20260903023509 76 103 0.0 3.0 0.01 4.55 4.40 94 1014.9
20260903023012 76 70 1.0 3.0 0.01 4.56 4.40 94 1015.0
20260903022509 76 265 0.0 4.0 0.01 4.56 4.40 94 1015.0
20260903022009 76 265 1.0 4.0 0.01 4.57 4.40 94 1015.1
20260903021516 76 349 0.0 4.0 0.01 4.58 4.40 94 1014.9
20260903021010 76 240 1.0 4.0 0.01 4.59 4.40 94 1014.7
20260903020513 76 96 0.0 2.0 0.01 4.60 4.40 94 1014.7
20260903020032 76 129 0.0 2.0 0.01 4.61 4.40 94 1014.8
20260903015510 76 82 0.0 5.0 0.01 4.63 4.40 94 1014.8
20260903015002 76 245 0.0 5.0 0.01 4.64 4.40 94 1014.9
20260903014505 76 234 0.0 3.0 0.01 4.64 4.39 94 1014.9
20260903014007 76 118 0.0 5.0 0.01 4.65 4.39 94 1014.7
20260903013506 76 94 1.0 5.0 0.01 4.66 4.39 94 1014.5
20260903013009 76 352 1.0 5.0 0.01 4.67 4.39 94 1014.1
20260903012511 76 178 1.0 4.0 0.01 4.69 4.39 94 1014.1
20260903012011 76 341 0.0 2.0 0.01 4.69 4.39 93 1014.1
20260903011517 76 67 0.0 3.0 0.01 4.71 4.39 94 1014.2
20260903011009 76 279 0.0 4.0 0.01 4.71 4.39 94 1014.5
20260903010511 75 128 0.0 5.0 0.01 4.73 4.39 94 1014.5
20260903010021 75 266 0.0 5.0 0.01 4.73 4.39 94 1014.6
20260903005514 75 313 0.0 4.0 0.01 4.73 4.39 94 1014.5
20260903005015 75 49 0.0 4.0 0.01 4.75 4.39 94 1014.3
20260903004519 75 89 0.0 3.0 0.00 4.75 4.38 93 1014.2
20260903004010 75 78 1.0 4.0 0.00 4.75 4.38 93 1014.2
20260903003512 75 339 1.0 4.0 0.00 4.76 4.38 93 1014.2
20260903003008 75 80 1.0 0.0 0.00 4.76 4.38 93 1014.4
20260903002513 0 0.0 0.0 0.00 4.77 4.38 1014.2
20260903002014 0 0.0 0.0 0.00 4.77 4.38 1014.1
20260903001519 0 0.0 0.0 0.00 4.78 4.38 1014.0
20260903001014 0 0.0 0.0 0.00 4.78 4.38 1014.2
20260903000510 0 0.0 0.0 0.00 4.79 4.38 1014.3
20260903000019 0 0.0 0.0 0.00 4.79 4.38 1014.5
20260902235514 0 0.0 0.0 0.00 4.79 4.38 1014.5
20260902235012 0 0.0 0.0 0.00 4.79 4.38 1014.5
20260902234519 0 0.0 0.0 0.00 4.79 4.38 1014.6
20260902234011 0 0.0 0.0 0.00 4.79 4.38 1014.7
20260902233513 0 0.0 0.0 0.00 4.79 4.38 1014.8
20260902233020 0 0.0 0.0 0.00 4.79 4.38 1014.7
20260902232515 0 0.0 0.0 0.00 4.79 4.38 1014.9
20260902232014 0 0.0 0.0 0.00 4.79 4.38 1015.0
20260902231539 0 0.0 0.0 0.07 4.79 4.38 1014.9
20260902231014 0 0.0 0.0 0.11 4.79 4.38 1015.0
20260902230513 0 0.0 0.0 0.13 4.79 4.38 1015.1
20260902230023 0 0.0 0.0 0.15 4.79 4.38 1015.0
20260902225516 0 0.0 0.0 0.18 4.79 4.38 1014.8
20260902225016 0 0.0 0.0 0.27 4.79 4.38 1014.8
20260902224524 0 0.0 0.0 0.35 4.79 4.38 1014.6
20260902224014 0 0.0 0.0 0.42 4.79 4.38 1014.8
20260902223515 0 0.0 0.0 0.47 4.79 4.38 1014.4
20260902223035 0 0.0 0.0 0.48 4.79 4.38 1014.5
20260902222519 75 0.0 2.0 0.48 4.79 4.38 91 1014.4
20260902222019 75 233 0.0 2.0 0.48 4.79 4.38 91 1014.8
20260902221529 75 321 0.0 2.0 0.41 4.71 4.31 91 1014.8
20260902221016 75 86 0.0 2.0 0.37 4.67 4.27 91 1014.9
20260902220516 75 113 0.0 4.0 0.35 4.66 4.25 91 1014.7
20260902220033 75 222 1.0 5.0 0.33 4.64 4.23 90 1014.2
20260902215511 75 269 1.0 7.0 0.30 4.61 4.19 90 1014.2
20260902215013 76 240 0.0 7.0 0.21 4.52 4.11 90 1014.3
20260902214523 76 360 0.0 5.0 0.13 4.44 4.03 90 1014.6
20260902214015 77 24 1.0 5.0 0.06 4.37 3.96 91 1014.6
20260902213514 78 350 2.0 10.0 0.01 4.32 3.91 91 1014.9
20260902213025 79 80 2.0 10.0 0.00 4.31 3.90 91 1015.0
20260902212516 80 290 0.0 0.0 0.00 4.31 3.90 92 1014.7
20260902212016 80 59 0.0 0.0 0.00 4.31 3.90 92 1014.3
20260902211530 80 59 0.0 0.0 0.00 4.31 3.90 92 1014.1
20260902211015 80 59 0.0 2.0 0.00 4.31 3.90 92 1014.0
20260902210514 80 59 0.0 2.0 0.00 4.31 3.90 92 1014.0
20260902210027 80 140 0.0 2.0 0.00 4.31 3.90 92 1014.1
20260902205515 80 329 0.0 1.0 0.00 4.31 3.90 92 1013.9
20260902205015 80 48 0.0 1.0 0.00 4.31 3.90 92 1014.0
20260902204533 80 40 0.0 4.0 0.00 4.31 3.90 92 1014.1
20260902204015 80 40 0.0 4.0 0.00 4.31 3.90 92 1014.0
20260902203512 80 180 0.0 3.0 0.00 4.31 3.90 92 1013.9
20260902203027 80 29 0.0 3.0 0.00 4.31 3.90 92 1014.0
20260902202514 80 221 0.0 3.0 0.00 4.31 3.90 92 1014.0
20260902202016 80 227 0.0 3.0 0.00 4.34 3.90 92 1014.2
20260902201527 80 236 0.0 4.0 0.00 4.34 3.90 92 1014.3
20260902201019 80 184 1.0 8.0 0.00 4.34 3.90 92 1014.1
20260902200518 80 119 2.0 7.0 0.00 4.34 3.90 92 1014.3
20260902200032 80 236 1.0 6.0 0.00 4.34 3.90 92 1014.3
20260902195516 80 63 1.0 6.0 0.00 4.34 3.90 92 1014.3
20260902195016 80 211 1.0 4.0 0.00 4.34 3.90 92 1014.3
20260902194532 79 181 2.0 7.0 0.00 4.34 3.90 92 1014.3
20260902194018 79 134 1.0 7.0 0.00 4.34 3.90 92 1014.5
20260902193516 79 71 1.0 4.0 0.00 4.34 3.90 93 1014.6
20260902193021 80 270 1.0 4.0 0.00 4.36 3.90 93 1014.5
20260902192517 80 165 0.0 4.0 0.00 4.36 3.90 93 1014.5
20260902192017 79 148 1.0 7.0 0.00 4.36 3.90 93 1014.5
20260902191521 79 201 2.0 0.0 0.00 4.36 3.90 1014.5
20260902191015 0 0.0 0.0 0.00 4.36 3.90 1014.6
20260902190517 0 0.0 0.0 0.00 4.36 3.90 1014.6
20260902190032 0 0.0 0.0 0.00 4.37 3.90 1014.6
20260902185518 0 0.0 0.0 0.00 4.37 3.90 1014.6
20260902185021 0 0.0 0.0 0.00 4.38 3.90 1014.5
20260902184541 0 0.0 0.0 0.00 4.40 3.90 1014.5
20260902184018 0 0.0 0.0 0.00 4.41 3.90 1014.7
20260902183519 0 0.0 0.0 0.00 4.41 3.90 1014.8
20260902183032 0 0.0 0.0 0.00 4.50 3.90 1014.9
20260902182515 0 0.0 0.0 0.00 4.50 3.90 1014.9
20260902182016 0 0.0 0.0 0.00 4.50 3.90 1014.9
20260902181533 0 0.0 0.0 0.00 4.50 3.90 1014.9
20260902181019 77 5.0 8.0 0.00 4.50 3.90 94 1014.9
20260902180516 77 360 5.0 8.0 0.00 4.50 3.90 94 1014.9
20260902180033 77 360 3.0 9.0 0.00 4.50 3.90 94 1014.9
20260902175514 77 293 3.0 9.0 0.00 4.50 3.90 94 1015.1
20260902175022 77 207 4.0 12.0 0.00 4.50 3.90 94 1015.2
20260902174534 77 172 5.0 0.0 0.00 4.50 3.90 94 1015.1
20260902174018 0 0.0 0.0 0.00 4.50 3.90 1015.2
20260902173525 0 0.0 0.0 0.00 4.50 3.90 1015.4
20260902173034 0 0.0 0.0 0.00 4.50 3.90 1015.4
20260902172518 0 0.0 0.0 0.00 4.50 3.90 1015.5
20260902172016 0 0.0 0.0 0.00 4.50 3.90 1015.6
20260902171534 0 0.0 0.0 0.00 4.50 3.90 1015.8
20260902171018 0 0.0 0.0 0.00 4.50 3.90 1015.7
20260902170517 0 0.0 0.0 0.00 4.50 3.90 1015.8
20260902170031 0 0.0 0.0 0.00 4.50 3.90 1015.8
20260902165515 0 0.0 0.0 0.00 4.50 3.90 1015.9
20260902165020 0 0.0 0.0 0.00 4.50 3.90 1016.1
20260902164534 0 0.0 0.0 0.00 4.50 3.90 1016.2
20260902164018 0 0.0 0.0 0.00 4.50 3.90 1016.3
20260902163516 0 0.0 0.0 0.00 4.50 3.90 1016.3
20260902163031 0 0.0 0.0 0.00 4.50 3.90 1016.5
20260902162516 0 0.0 0.0 0.00 4.50 3.90 1016.6
20260902162020 0 0.0 0.0 0.00 4.50 3.90 1016.6
20260902161539 0 0.0 0.0 0.00 4.50 3.90 1016.7
20260902161018 0 0.0 0.0 0.00 4.50 3.90 1016.6
20260902160515 0 0.0 0.0 0.00 4.50 3.90 1016.7
20260902160032 0 0.0 0.0 0.06 4.50 3.90 1016.7
20260902155519 0 0.0 0.0 0.21 4.50 3.90 1016.7
20260902155016 0 0.0 0.0 0.33 4.50 3.90 1016.8
20260902154534 0 0.0 0.0 0.40 4.50 3.90 1016.8
20260902154019 0 0.0 0.0 0.47 4.50 3.90 1016.8
20260902153521 0 0.0 0.0 0.55 4.50 3.90 1016.8
20260902153030 0 0.0 0.0 0.58 4.50 3.90 1016.6
20260902152517 0 0.0 0.0 0.63 4.50 3.90 1016.5
20260902152018 0 0.0 0.0 0.66 4.50 3.90 1016.3
20260902151544 0 0.0 0.0 0.68 4.50 3.90 1016.2
20260902151019 73 0.0 0.0 0.73 4.50 3.90 94 1016.4
20260902150519 73 4.0 10.0 0.74 4.50 3.90 94 1016.3
20260902150021 73 237 3.0 10.0 0.72 4.44 3.84 94 1016.4
20260902145512 73 222 2.0 15.0 0.58 4.29 3.69 94 1016.1
20260902145018 73 360 4.0 15.0 0.49 4.17 3.57 94 1016.1
20260902144527 73 216 6.0 15.0 0.46 4.10 3.50 94 1016.2
20260902144015 73 271 7.0 15.0 0.42 4.03 3.43 94 1016.1
20260902143522 73 182 7.0 15.0 0.37 3.95 3.35 94 1016.1
20260902143029 73 317 4.0 11.0 0.35 3.91 3.31 94 1016.0
20260902142519 73 213 6.0 14.0 0.31 3.87 3.27 94 1015.9
20260902142020 73 225 5.0 18.0 0.28 3.84 3.24 94 1015.9
20260902141537 74 194 7.0 18.0 0.26 3.82 3.22 94 1015.9
20260902141019 73 105 4.0 12.0 0.21 3.77 3.17 94 1015.9
20260902140519 74 165 5.0 12.0 0.20 3.76 3.16 94 1015.8
20260902140125 74 132 5.0 22.0 0.14 3.70 3.10 94 1015.5
20260902140118 74 228 5.0 13.0 0.08 3.64 3.04 94 1015.3
20260902140111 74 240 4.0 12.0 0.05 3.61 3.01 94 1015.3
20260902133034 0 0.0 0.0 0.00 3.56 2.96 1015.1
20260902132520 0 0.0 0.0 0.00 3.56 2.96 1014.9
20260902132018 0 0.0 0.0 0.01 3.56 2.96 1015.0
20260902131538 0 0.0 0.0 0.02 3.56 2.96 1014.9
20260902131015 0 0.0 0.0 0.03 3.56 2.96 1014.8
20260902130522 0 0.0 0.0 0.05 3.56 2.96 1014.6
20260902130034 0 0.0 0.0 0.05 3.56 2.96 1014.6
20260902125515 0 0.0 0.0 0.05 3.56 2.96 1014.5
20260902125022 0 0.0 0.0 0.06 3.56 2.96 1014.5
20260902124534 0 0.0 0.0 0.06 3.56 2.96 1014.3
20260902124018 0 0.0 0.0 0.07 3.56 2.96 1014.1
20260902123518 74 0.0 0.0 0.09 3.56 2.96 94 1014.0
20260902123032 74 3.0 11.0 0.10 3.56 2.96 94 1013.8
20260902122520 74 244 3.0 10.0 0.10 3.56 2.96 94 1013.8
20260902122017 74 105 4.0 13.0 0.10 3.55 2.95 94 1013.8
20260902121529 74 319 2.0 13.0 0.10 3.54 2.94 94 1013.7
20260902121017 74 160 6.0 16.0 0.10 3.53 2.93 94 1013.8
20260902120507 74 49 4.0 14.0 0.11 3.51 2.91 94 1013.7
20260902120034 74 135 5.0 14.0 0.16 3.51 2.91 94 1013.6
20260902115512 74 109 4.0 15.0 0.19 3.51 2.91 94 1013.6
20260902115010 74 147 6.0 15.0 0.23 3.50 2.90 94 1013.6
20260902114541 74 266 3.0 20.0 0.25 3.50 2.90 94 1013.5
20260902114017 74 127 6.0 20.0 0.27 3.49 2.89 94 1013.6
20260902113514 74 42 3.0 19.0 0.27 3.47 2.87 94 1013.7
20260902113019 74 85 3.0 18.0 0.27 3.46 2.86 94 1013.6
20260902112518 74 158 7.0 16.0 0.27 3.46 2.86 94 1013.5
20260902112015 74 185 3.0 19.0 0.28 3.45 2.85 94 1013.3
20260902111527 74 180 3.0 19.0 0.31 3.44 2.84 94 1013.2
20260902111016 74 340 5.0 18.0 0.36 3.43 2.83 94 1013.3
20260902110519 74 329 3.0 10.0 0.36 3.40 2.80 94 1013.3
20260902110040 74 338 2.0 14.0 0.33 3.35 2.75 94 1013.5
20260902105505 74 13 4.0 14.0 0.31 3.32 2.72 94 1013.5
20260902105007 74 128 5.0 13.0 0.27 3.27 2.67 94 1013.4
20260902104531 74 227 5.0 13.0 0.26 3.25 2.65 94 1013.4